Regional Weather Roundup
Issued by NWS

Home | Current Version | Previous Version | Text Only | Print | Product List | Glossary Off
Versions: 1 2 3 4 5 6 7 8 9 10 11 12 13 14 15 16 17 18 19 20 21 22 23 24 25 26 27 28 29 30 31 32 33 34 35 36 37 38 39 40 41 42 43 44 45 46 47 48 49 50

000
ASUS43 KBIS 020210
RWRND

NORTH DAKOTA REGIONAL WEATHER ROUNDUP
NATIONAL WEATHER SERVICE BISMARCK ND
900 PM CDT FRI AUG 01 2014

NOTE: "FAIR" INDICATES FEW OR NO CLOUDS BELOW 12,000 FEET WITH NO
SIGNIFICANT WEATHER AND/OR OBSTRUCTIONS TO VISIBILITY.


NDZ001>003-009>011-017-020300-
NORTHWEST NORTH DAKOTA

CITY           SKY/WX    TMP DP  RH WIND       PRES   REMARKS
WILLISTON      CLEAR     79  55  43 E8        30.06R
MINOT          PTCLDY    73  63  70 CALM      30.06R
MINOT AFB      PTCLDY    75  63  67 CALM      30.05S
$$

NDZ018>021-031>035-040>046-020300-
SOUTHWEST NORTH DAKOTA

CITY           SKY/WX    TMP DP  RH WIND       PRES   REMARKS
BISMARCK       MOCLDY    67  60  78 SE9       30.05S
DICKINSON      CLEAR     73  59  61 E8        30.06R
GARRISON         N/A     75  65  70 CALM      30.06R
HETTINGER ARPT CLEAR     76  59  55 NE9       30.05R
$$

NDZ004>008-012>016-024-026-027-054-020300-
NORTHEAST NORTH DAKOTA

CITY           SKY/WX    TMP DP  RH WIND       PRES   REMARKS
GRAND FORKS    PTCLDY    74  62  66 SE5       30.04F
GRND FRKS AFB  PTCLDY    73  64  72 SE6       30.06S
DEVILS LAKE    PTCLDY    73  59  60 SE6       30.05S
$$

NDZ022-023-025-028>030-036>039-047>053-020300-
SOUTHEAST NORTH DAKOTA

CITY           SKY/WX    TMP DP  RH WIND       PRES   REMARKS
FARGO          PTCLDY    73  60  63 CALM      30.05F
JAMESTOWN      PTCLDY    72  61  68 E7        30.05S
$$




USA.gov is the U.S. government's official web portal to all federal, state and local government web resources and services.